Home   Weather   Pago Pago   Past weeks
Flag for American Samoa

Past Weather in Pago Pago, American Samoa — Yesterday and Last 2 Weeks

Now
75 °F

Passing clouds.


Feels Like: 74 °F
Forecast: 84 / 77 °F
Wind: 3 mph from North

Location: Pago Pago / Int. Airp.

Current Time: Aug 21, 2019 at 2:39:58 am

Latest Report: Aug 21, 2019 at 1:50 am


Visibility: 10 mi

Pressure: 29.90 "Hg

Humidity: 90%

Dew Point: 72 °F

Location of Pago PagoLocation

Past Weather in Pago Pago — Graph

°F

Pago Pago Temperature Yesterday

Maximum temperature yesterday: 87 °F (at 12:50 pm)
Minimum temperature yesterday: 75 °F (at 4:50 am)
Average temperature yesterday: 80 °F

High & Low Weather Summary for the Past Weeks

 TemperatureHumidityPressure
High87 °F (Aug 6, 12:50 pm)94% (Aug 15, 10:50 pm)30.03 "Hg (Aug 15, 10:50 pm)
Low75 °F (Aug 20, 4:50 am)66% (Aug 18, 1:52 pm)29.79 "Hg (Aug 19, 2:50 pm)
Average81 °F80%29.90 "Hg
* Reported Aug 6 12:50 am — Aug 21 12:50 am, Pago Pago. Weather by CustomWeather, © 2019

Note: Actual official high and low records may vary slightly from our data, if they occured in-between our weather recording intervals... More about our weather records

Advertising

Pago Pago Weather History for the Previous 24 Hours

Scroll right to see more
 ConditionsComfort  
Time TempWeatherWind HumidityBarometerVisibility
12:50 am
Wed, Aug 21
76 °FPassing clouds.2 mph89%29.91 "Hg10 mi
11:50 pm
Tue, Aug 20
77 °FPassing clouds.3 mph89%29.93 "Hg10 mi
10:50 pm77 °FPassing clouds.2 mph83%29.93 "Hg10 mi
9:50 pm76 °FClear.2 mph85%29.94 "Hg10 mi
8:50 pm77 °FClear.3 mph83%29.93 "Hg10 mi
7:50 pm78 °FClear.3 mph81%29.91 "Hg10 mi
6:50 pm79 °FClear.No wind79%29.89 "Hg11 mi
5:50 pm82 °FPassing clouds.5 mph74%29.87 "Hg12 mi
4:50 pm86 °FPassing clouds.5 mph66%29.85 "Hg12 mi
3:50 pm85 °FScattered clouds.7 mph67%29.83 "Hg12 mi
2:50 pm84 °FPassing clouds.3 mph70%29.83 "Hg12 mi
1:53 pm85 °FPassing clouds.7 mph70%29.84 "Hg12 mi
12:50 pm87 °FPassing clouds.7 mph69%29.85 "Hg12 mi
11:50 am86 °FPassing clouds.7 mph70%29.88 "Hg12 mi
10:50 am85 °FPassing clouds.2 mph66%29.89 "Hg12 mi
9:50 am85 °FPassing clouds.3 mph70%29.90 "Hg12 mi
8:50 am82 °FPassing clouds.3 mph74%29.90 "Hg12 mi
7:50 am80 °FPassing clouds.5 mph82%29.88 "Hg12 mi
6:50 am75 °FPassing clouds.2 mph89%29.86 "Hg12 mi
5:50 am75 °FPassing clouds.No wind90%29.83 "Hg11 mi
4:50 am75 °FPassing clouds.3 mph90%29.82 "Hg10 mi
3:50 am75 °FPassing clouds.2 mph89%29.80 "Hg10 mi
2:50 am79 °FPassing clouds.No wind84%29.80 "Hg10 mi
Weather by CustomWeather, © 2019

See weather overview